224173,2001/03/20,07:59:58,1,1.94,22.55,22.55,22.55,12.62
224173,2001/03/20,08:14:58,1,1.94,22.55,22.55,22.55,12.65
224173,2001/03/20,08:29:58,1,1.95,22.55,22.55,22.55,12.68
224173,2001/03/20,08:44:58,1,1.95,22.55,22.55,22.55,12.72
224173,2001/03/20,08:59:58,1,1.95,22.55,22.55,22.55,12.78
224173,2001/03/20,09:14:58,1,1.95,22.55,22.55,22.55,12.86
224173,2001/03/20,09:29:58,1,1.96,22.55,22.55,22.55,13.02
224173,2001/03/20,09:44:58,1,1.96,22.60,22.55,22.55,13.09
224173,2001/03/20,09:59:58,1,1.97,22.60,22.55,22.55,13.06
224173,2001/03/20,10:14:58,1,1.98,22.60,22.60,22.55,13.04
224173,2001/03/20,10:29:58,1,1.98,22.60,22.60,22.55,13.02
224173,2001/03/20,10:44:58,1,1.99,22.60,22.60,22.55,13.01
224173,2001/03/20,10:59:58,1,2.00,22.60,22.60,22.55,13.00
224173,2001/03/20,11:14:58,1,1.99,22.60,22.60,22.60,13.00
224173,2001/03/20,11:29:58,1,2.01,22.60,22.60,22.60,13.01
224173,2001/03/20,11:44:58,1,2.00,22.60,22.60,22.60,13.00
224173,2001/03/20,11:59:58,1,2.02,22.60,22.60,22.60,13.00
224173,2001/03/20,12:14:58,1,2.01,22.60,22.60,22.60,13.00
224173,2001/03/20,12:29:58,1,2.01,22.60,22.60,22.60,12.99
224173,2001/03/20,12:44:58,1,2.02,22.60,22.60,22.60,13.00
224173,2001/03/20,12:59:58,1,2.02,22.60,22.60,22.60,13.00
224173,2001/03/20,13:14:58,1,2.02,22.60,22.60,22.60,13.00
224173,2001/03/20,13:29:58,1,2.03,22.60,22.60,22.60,13.00
224173,2001/03/20,13:44:58,1,2.03,22.60,22.60,22.60,12.99
224173,2001/03/20,13:59:58,1,2.03,22.60,22.60,22.60,12.99
224173,2001/03/20,14:14:58,1,2.03,22.60,22.60,22.60,12.99
224173,2001/03/20,14:29:58,1,2.03,22.60,22.60,22.60,12.99
224173,2001/03/20,14:44:58,1,2.03,22.60,22.60,22.60,12.99
224173,2001/03/20,14:59:58,1,2.03,22.60,22.60,22.60,13.00
224173,2001/03/20,15:14:58,1,2.04,22.60,22.60,22.60,13.00
224173,2001/03/20,15:29:58,1,2.03,22.60,22.60,22.60,13.00
224173,2001/03/20,15:44:58,1,2.03,22.60,22.60,22.60,13.01
224173,2001/03/20,15:59:58,1,2.03,22.60,22.60,22.60,13.02
224173,2001/03/20,16:14:58,1,2.02,22.60,22.60,22.60,13.02
224173,2001/03/20,16:29:58,1,2.03,22.60,22.60,22.60,13.03
224173,2001/03/20,16:44:58,1,2.02,22.60,22.60,22.60,13.03
224173,2001/03/20,16:59:58,1,2.02,22.60,22.60,22.60,13.01
224173,2001/03/20,17:14:58,1,2.02,22.60,22.60,22.60,12.93
224173,2001/03/20,17:29:58,1,2.02,22.60,22.60,22.60,12.87
224173,2001/03/20,17:44:58,1,2.01,22.60,22.60,22.60,12.83
224173,2001/03/20,17:59:58,1,2.01,22.60,22.60,22.60,12.79
224173,2001/03/20,18:14:58,1,2.01,22.55,22.60,22.60,12.77
224173,2001/03/20,18:29:58,1,2.01,22.55,22.60,22.60,12.76
224173,2001/03/20,18:44:58,1,2.01,22.55,22.60,22.60,12.74
224173,2001/03/20,18:59:58,1,2.01,22.55,22.60,22.60,12.73
224173,2001/03/20,19:14:58,1,2.00,22.55,22.55,22.55,12.72
224173,2001/03/20,19:29:58,1,2.00,22.55,22.55,22.55,12.71
224173,2001/03/20,19:44:58,1,2.00,22.55,22.55,22.55,12.70
224173,2001/03/20,19:59:58,1,2.00,22.55,22.55,22.55,12.69
224173,2001/03/20,20:14:58,1,2.00,22.55,22.55,22.55,12.69
224173,2001/03/20,20:29:58,1,2.00,22.55,22.55,22.55,12.68
224173,2001/03/20,20:44:58,1,2.00,22.55,22.55,22.55,12.67
224173,2001/03/20,20:59:58,1,2.00,22.55,22.55,22.55,12.66
224173,2001/03/20,21:14:58,1,2.00,22.55,22.55,22.55,12.66
224173,2001/03/20,21:29:58,1,2.00,22.55,22.55,22.55,12.66
224173,2001/03/20,21:44:58,1,2.00,22.55,22.55,22.55,12.65
224173,2001/03/20,21:59:58,1,2.00,22.55,22.55,22.55,12.65
224173,2001/03/20,22:14:58,1,2.00,22.55,22.55,22.55,12.64
224173,2001/03/20,22:29:58,1,2.00,22.55,22.55,22.55,12.64
224173,2001/03/20,22:44:58,1,2.00,22.55,22.55,22.55,12.64
224173,2001/03/20,22:59:58,1,2.00,22.55,22.55,22.55,12.63
224173,2001/03/20,23:14:58,1,2.01,22.55,22.55,22.55,12.63
224173,2001/03/20,23:29:58,1,2.02,22.55,22.55,22.55,12.62
224173,2001/03/20,23:44:58,1,2.05,22.55,22.55,22.55,12.62
224173,2001/03/20,23:59:58,1,2.06,22.55,22.55,22.55,12.62
224173,2001/03/21,00:14:58,1,2.06,22.55,22.55,22.55,12.61
224173,2001/03/21,00:29:58,1,2.08,22.55,22.55,22.55,12.61
224173,2001/03/21,00:44:58,1,2.11,22.55,22.55,22.55,12.60
224173,2001/03/21,00:59:58,1,2.15,22.55,22.55,22.55,12.60
224173,2001/03/21,01:14:58,1,2.25,22.55,22.55,22.55,12.60
224173,2001/03/21,01:29:58,1,2.36,22.55,22.55,22.55,12.59
224173,2001/03/21,01:44:58,1,2.39,22.55,22.55,22.55,12.59
224173,2001/03/21,01:59:58,1,2.44,22.55,22.55,22.55,12.59
224173,2001/03/21,02:14:58,1,2.53,22.55,22.55,22.55,12.59
224173,2001/03/21,02:29:58,1,2.65,22.55,22.55,22.55,12.59
224173,2001/03/21,02:44:58,1,2.79,22.55,22.55,22.55,12.58
224173,2001/03/21,02:59:58,1,2.89,22.55,22.55,22.55,12.58
224173,2001/03/21,03:14:58,1,2.99,22.55,22.55,22.55,12.58
224173,2001/03/21,03:29:58,1,3.05,22.55,22.55,22.55,12.58
224173,2001/03/21,03:44:58,1,3.08,22.55,22.55,22.55,12.58
224173,2001/03/21,03:59:58,1,3.09,22.55,22.55,22.55,12.58
224173,2001/03/21,04:14:58,1,3.10,22.55,22.55,22.55,12.57
224173,2001/03/21,04:29:58,1,3.11,22.55,22.55,22.55,12.57
224173,2001/03/21,04:44:58,1,3.12,22.55,22.55,22.55,12.57
224173,2001/03/21,04:59:58,1,3.12,22.55,22.55,22.55,12.57
224173,2001/03/21,05:14:58,1,3.11,22.55,22.55,22.55,12.57
224173,2001/03/21,05:29:58,1,3.13,22.55,22.55,22.55,12.57
224173,2001/03/21,05:44:58,1,3.17,22.55,22.55,22.55,12.56
224173,2001/03/21,05:59:58,1,3.18,22.55,22.55,22.55,12.56
224173,2001/03/21,06:14:58,1,3.19,22.55,22.55,22.55,12.56
224173,2001/03/21,06:29:58,1,3.24,22.55,22.55,22.55,12.56
224173,2001/03/21,06:44:58,1,3.28,22.55,22.55,22.55,12.56
224173,2001/03/21,06:59:58,1,3.30,22.55,22.55,22.55,12.57
224173,2001/03/21,07:14:58,1,3.32,22.55,22.55,22.55,12.57
224173,2001/03/21,07:29:58,1,3.35,22.55,22.55,22.55,12.57
224173,2001/03/21,07:44:58,1,3.36,22.55,22.55,22.55,12.56
224173,2001/03/21,07:59:58,1,3.39,22.55,22.55,22.55,12.58
224173,2001/03/21,08:14:58,1,3.43,22.55,22.55,22.55,12.58
224173,2001/03/21,08:29:58,1,3.45,22.55,22.55,22.55,12.59
224173,2001/03/21,08:44:58,1,3.45,22.55,22.55,22.55,12.60
224173,2001/03/21,08:59:58,1,3.46,22.55,22.55,22.55,12.63
224173,2001/03/21,09:14:58,1,3.47,22.55,22.55,22.55,12.62
224173,2001/03/21,09:29:58,1,3.47,22.55,22.55,22.55,12.60
224173,2001/03/21,09:44:58,1,3.49,22.55,22.55,22.55,12.58
224173,2001/03/21,09:59:58,1,3.51,22.55,22.55,22.55,12.56
224173,2001/03/21,10:14:58,1,3.56,22.50,22.55,22.55,12.55
224173,2001/03/21,10:29:58,1,3.59,22.50,22.55,22.55,12.54
224173,2001/03/21,10:44:58,1,3.65,22.50,22.55,22.55,12.55
224173,2001/03/21,10:59:58,1,3.67,22.50,22.55,22.55,12.56
224173,2001/03/21,11:14:58,1,3.66,22.50,22.50,22.50,12.58
224173,2001/03/21,11:29:58,1,3.66,22.50,22.50,22.50,12.60
224173,2001/03/21,11:44:58,1,3.67,22.50,22.50,22.50,12.63
224173,2001/03/21,11:59:58,1,3.67,22.50,22.50,22.50,12.65
224173,2001/03/21,12:14:58,1,3.67,22.55,22.51,22.50,12.73
224173,2001/03/21,12:29:58,1,3.68,22.55,22.51,22.50,12.79
224173,2001/03/21,12:44:58,1,3.68,22.55,22.51,22.50,12.84
224173,2001/03/21,12:59:58,1,3.69,22.55,22.51,22.50,12.88
224173,2001/03/21,13:14:58,1,3.69,22.55,22.55,22.55,13.02
224173,2001/03/21,13:29:58,1,3.71,22.55,22.55,22.55,13.03
224173,2001/03/21,13:44:58,1,3.70,22.55,22.55,22.55,13.02
224173,2001/03/21,13:59:58,1,3.70,22.55,22.55,22.55,13.05
224173,2001/03/21,14:14:58,1,3.68,22.55,22.55,22.55,13.05
224173,2001/03/21,14:29:58,1,3.67,22.55,22.55,22.55,13.10
224173,2001/03/21,14:44:58,1,3.65,22.50,22.55,22.55,13.02
224173,2001/03/21,14:59:58,1,3.65,22.50,22.55,22.55,13.05
224173,2001/03/21,15:14:58,1,3.65,22.50,22.55,22.50,13.05
224173,2001/03/21,15:29:58,1,3.64,22.50,22.55,22.50,13.04
224173,2001/03/21,15:44:58,1,3.63,22.50,22.55,22.50,12.99
224173,2001/03/21,15:59:58,1,3.63,22.50,22.55,22.50,12.94
224173,2001/03/21,16:14:58,1,3.63,22.50,22.50,22.50,12.90
224173,2001/03/21,16:29:58,1,3.63,22.50,22.50,22.50,12.84
224173,2001/03/21,16:44:58,1,3.63,22.50,22.50,22.50,12.80
224173,2001/03/21,16:59:58,1,3.63,22.50,22.50,22.50,12.76
224173,2001/03/21,17:14:58,1,3.63,22.50,22.50,22.50,12.73
224173,2001/03/21,17:29:58,1,3.63,22.50,22.50,22.50,12.69
224173,2001/03/21,17:44:58,1,3.63,22.50,22.50,22.50,12.66
224173,2001/03/21,17:59:58,1,3.63,22.50,22.50,22.50,12.64
224173,2001/03/21,18:14:58,1,3.63,22.50,22.50,22.50,12.62
224173,2001/03/21,18:29:58,1,3.63,22.50,22.50,22.50,12.60
224173,2001/03/21,18:44:58,1,3.63,22.50,22.50,22.50,12.58
224173,2001/03/21,18:59:58,1,3.62,22.50,22.50,22.50,12.57
224173,2001/03/21,19:14:58,1,3.63,22.50,22.50,22.50,12.56
224173,2001/03/21,19:29:58,1,3.63,22.50,22.50,22.50,12.55
224173,2001/03/21,19:44:58,1,3.62,22.50,22.50,22.50,12.54
224173,2001/03/21,19:59:58,1,3.62,22.50,22.50,22.50,12.53
224173,2001/03/21,20:14:58,1,3.62,22.50,22.50,22.50,12.52
224173,2001/03/21,20:29:58,1,3.62,22.50,22.50,22.50,12.52
224173,2001/03/21,20:44:58,1,3.62,22.50,22.50,22.50,12.51
224173,2001/03/21,20:59:58,1,3.62,22.50,22.50,22.50,12.51
224173,2001/03/21,21:14:58,1,3.62,22.50,22.50,22.50,12.50
224173,2001/03/21,21:29:58,1,3.62,22.50,22.50,22.50,12.50
224173,2001/03/21,21:44:58,1,3.62,22.50,22.50,22.50,12.50
224173,2001/03/21,21:59:58,1,3.62,22.50,22.50,22.50,12.49
224173,2001/03/21,22:14:58,1,3.62,22.50,22.50,22.50,12.49
224173,2001/03/21,22:29:58,1,3.61,22.50,22.50,22.50,12.49
224173,2001/03/21,22:44:58,1,3.61,22.50,22.50,22.50,12.48
224173,2001/03/21,22:59:58,1,3.61,22.50,22.50,22.50,12.48
224173,2001/03/21,23:14:58,1,3.61,22.50,22.50,22.50,12.48
224173,2001/03/21,23:29:58,1,3.61,22.50,22.50,22.50,12.48
224173,2001/03/21,23:44:58,1,3.60,22.50,22.50,22.50,12.48
224173,2001/03/21,23:59:58,1,3.60,22.50,22.50,22.50,12.48
224173,2001/03/22,00:14:58,1,3.60,22.50,22.50,22.50,12.47
224173,2001/03/22,00:29:58,1,3.60,22.50,22.50,22.50,12.47
224173,2001/03/22,00:44:58,1,3.60,22.50,22.50,22.50,12.47
224173,2001/03/22,00:59:58,1,3.60,22.50,22.50,22.50,12.48
224173,2001/03/22,01:14:58,1,3.60,22.50,22.50,22.50,12.47
224173,2001/03/22,01:29:58,1,3.60,22.50,22.50,22.50,12.47
224173,2001/03/22,01:44:58,1,3.60,22.50,22.50,22.50,12.47
224173,2001/03/22,01:59:58,1,3.60,22.50,22.50,22.50,12.47
224173,2001/03/22,02:14:58,1,3.60,22.50,22.50,22.50,12.47
224173,2001/03/22,02:29:58,1,3.60,22.50,22.50,22.50,12.47
224173,2001/03/22,02:44:58,1,3.60,22.50,22.50,22.50,12.46
224173,2001/03/22,02:59:58,1,3.60,22.50,22.50,22.50,12.47
224173,2001/03/22,03:14:58,1,3.60,22.50,22.50,22.50,12.47
224173,2001/03/22,03:29:58,1,3.60,22.50,22.50,22.50,12.46
224173,2001/03/22,03:44:58,1,3.59,22.50,22.50,22.50,12.46
224173,2001/03/22,03:59:58,1,3.60,22.50,22.50,22.50,12.46
224173,2001/03/22,04:14:58,1,3.60,22.50,22.50,22.50,12.46
224173,2001/03/22,04:29:58,1,3.60,22.50,22.50,22.50,12.46
224173,2001/03/22,04:44:58,1,3.60,22.50,22.50,22.50,12.46
224173,2001/03/22,04:59:58,1,3.59,22.50,22.50,22.50,12.46
224173,2001/03/22,05:14:58,1,3.59,22.50,22.50,22.50,12.46
224173,2001/03/22,05:29:58,1,3.60,22.50,22.50,22.50,12.46
224173,2001/03/22,05:44:58,1,3.60,22.50,22.50,22.50,12.46
224173,2001/03/22,05:59:58,1,3.61,22.50,22.50,22.50,12.46
224173,2001/03/22,06:14:58,1,3.62,22.50,22.50,22.50,12.46
224173,2001/03/22,06:29:58,1,3.64,22.50,22.50,22.50,12.46
224173,2001/03/22,06:44:58,1,3.65,22.50,22.50,22.50,12.46
224173,2001/03/22,06:59:58,1,3.65,22.50,22.50,22.50,12.47
224173,2001/03/22,07:14:58,1,3.66,22.50,22.50,22.50,12.49
224173,2001/03/22,07:29:58,1,3.66,22.50,22.50,22.50,12.49
224173,2001/03/22,07:44:58,1,3.66,22.50,22.50,22.50,12.49
224173,2001/03/22,07:59:58,1,3.65,22.50,22.50,22.50,12.50
224173,2001/03/22,08:14:58,1,3.65,22.50,22.50,22.50,12.51
224173,2001/03/22,08:29:58,1,3.65,22.50,22.50,22.50,12.51
224173,2001/03/22,08:44:58,1,3.66,22.50,22.50,22.50,12.54
224173,2001/03/22,08:59:58,1,3.66,22.50,22.50,22.50,12.58
224173,2001/03/22,09:14:58,1,3.65,22.50,22.50,22.50,12.59
224173,2001/03/22,09:29:58,1,3.65,22.50,22.50,22.50,12.57
224173,2001/03/22,09:44:58,1,3.65,22.50,22.50,22.50,12.57
224173,2001/03/22,09:59:58,1,3.65,22.55,22.50,22.50,12.61
224173,2001/03/22,10:14:58,1,3.65,22.55,22.55,22.50,12.65
224173,2001/03/22,10:29:58,1,3.65,22.55,22.55,22.50,12.62
224173,2001/03/22,10:44:58,1,3.65,22.55,22.55,22.50,12.60
224173,2001/03/22,10:59:58,1,3.65,22.55,22.55,22.50,12.59
224173,2001/03/22,11:14:58,1,3.65,22.55,22.55,22.55,12.60
224173,2001/03/22,11:29:58,1,3.65,22.55,22.55,22.55,12.62
224173,2001/03/22,11:44:58,1,3.65,22.55,22.55,22.55,12.60
224173,2001/03/22,11:59:58,1,3.65,22.55,22.55,22.55,12.60
224173,2001/03/22,12:14:58,1,3.65,22.55,22.55,22.55,12.64
224173,2001/03/22,12:29:58,1,3.65,22.55,22.55,22.55,12.69
224173,2001/03/22,12:44:58,1,3.65,22.55,22.55,22.55,12.68
224173,2001/03/22,12:59:58,1,3.66,22.55,22.55,22.55,12.67
224173,2001/03/22,13:14:58,1,3.68,22.55,22.55,22.55,12.70
224173,2001/03/22,13:29:58,1,3.74,22.55,22.55,22.55,12.74
224173,2001/03/22,13:44:58,1,3.74,22.55,22.55,22.55,12.78
224173,2001/03/22,13:59:58,1,3.74,22.55,22.55,22.55,12.78
224173,2001/03/22,14:14:58,1,3.75,22.55,22.55,22.55,12.77
224173,2001/03/22,14:29:58,1,3.76,22.55,22.55,22.55,12.75
224173,2001/03/22,14:44:58,1,3.76,22.55,22.55,22.55,12.74
224173,2001/03/22,14:59:58,1,3.76,22.55,22.55,22.55,12.77
224173,2001/03/22,15:14:58,1,3.76,22.55,22.55,22.55,12.82
224173,2001/03/22,15:29:58,1,3.76,22.55,22.55,22.55,12.99
224173,2001/03/22,15:44:58,1,3.75,22.55,22.55,22.55,12.92
224173,2001/03/22,15:59:58,1,3.75,22.55,22.55,22.55,12.87
224173,2001/03/22,16:14:58,1,3.76,22.55,22.55,22.55,12.82
224173,2001/03/22,16:29:58,1,3.76,22.55,22.55,22.55,12.92
224173,2001/03/22,16:44:58,1,3.75,22.55,22.55,22.55,13.09
224173,2001/03/22,16:59:58,1,3.74,22.55,22.55,22.55,13.04
224173,2001/03/22,17:14:58,1,3.75,22.55,22.55,22.55,12.97
224173,2001/03/22,17:29:58,1,3.75,22.55,22.55,22.55,12.92
224173,2001/03/22,17:44:58,1,3.75,22.55,22.55,22.55,12.86
224173,2001/03/22,17:59:58,1,3.75,22.55,22.55,22.55,12.79
224173,2001/03/22,18:14:58,1,3.76,22.55,22.55,22.55,12.74
224173,2001/03/22,18:29:58,1,3.76,22.55,22.55,22.55,12.70
224173,2001/03/22,18:44:58,1,3.77,22.55,22.55,22.55,12.67
224173,2001/03/22,18:59:58,1,3.77,22.55,22.55,22.55,12.64
224173,2001/03/22,19:14:58,1,3.77,22.55,22.55,22.55,12.62
224173,2001/03/22,19:29:58,1,3.77,22.55,22.55,22.55,12.60
224173,2001/03/22,19:44:58,1,3.78,22.55,22.55,22.55,12.58
224173,2001/03/22,19:59:58,1,3.78,22.55,22.55,22.55,12.57
224173,2001/03/22,20:14:58,1,3.78,22.55,22.55,22.55,12.56
224173,2001/03/22,20:29:58,1,3.78,22.55,22.55,22.55,12.55
224173,2001/03/22,20:44:58,1,3.78,22.50,22.55,22.55,12.55
224173,2001/03/22,20:59:58,1,3.78,22.50,22.55,22.55,12.54
224173,2001/03/22,21:14:58,1,3.76,22.50,22.55,22.50,12.53
224173,2001/03/22,21:29:58,1,3.75,22.50,22.55,22.50,12.53
224173,2001/03/22,21:44:58,1,3.74,22.50,22.55,22.50,12.52
224173,2001/03/22,21:59:58,1,3.73,22.50,22.55,22.50,12.52
224173,2001/03/22,22:14:58,1,3.73,22.50,22.50,22.50,12.51
224173,2001/03/22,22:29:58,1,3.73,22.50,22.50,22.50,12.51
224173,2001/03/22,22:44:58,1,3.73,22.50,22.50,22.50,12.50
224173,2001/03/22,22:59:58,1,3.72,22.50,22.50,22.50,12.50
224173,2001/03/22,23:14:58,1,3.72,22.50,22.50,22.50,12.50
224173,2001/03/22,23:29:58,1,3.71,22.50,22.50,22.50,12.49
224173,2001/03/22,23:44:58,1,3.71,22.50,22.50,22.50,12.49
224173,2001/03/22,23:59:58,1,3.71,22.50,22.50,22.50,12.49
224173,2001/03/23,00:14:58,1,3.71,22.50,22.50,22.50,12.48
224173,2001/03/23,00:29:58,1,3.71,22.50,22.50,22.50,12.48
224173,2001/03/23,00:44:58,1,3.70,22.50,22.50,22.50,12.48
224173,2001/03/23,00:59:58,1,3.70,22.50,22.50,22.50,12.47
224173,2001/03/23,01:14:58,1,3.70,22.50,22.50,22.50,12.47
224173,2001/03/23,01:29:58,1,3.70,22.50,22.50,22.50,12.47
224173,2001/03/23,01:44:58,1,3.70,22.50,22.50,22.50,12.47
224173,2001/03/23,01:59:58,1,3.70,22.50,22.50,22.50,12.47
224173,2001/03/23,02:14:58,1,3.69,22.50,22.50,22.50,12.46
224173,2001/03/23,02:29:58,1,3.69,22.50,22.50,22.50,12.47
224173,2001/03/23,02:44:58,1,3.69,22.50,22.50,22.50,12.46
224173,2001/03/23,02:59:58,1,3.70,22.50,22.50,22.50,12.46
224173,2001/03/23,03:14:58,1,3.70,22.50,22.50,22.50,12.46
224173,2001/03/23,03:29:58,1,3.69,22.50,22.50,22.50,12.46
224173,2001/03/23,03:44:58,1,3.69,22.50,22.50,22.50,12.46
224173,2001/03/23,03:59:58,1,3.69,22.50,22.50,22.50,12.46
224173,2001/03/23,04:14:58,1,3.69,22.50,22.50,22.50,12.45
224173,2001/03/23,04:29:58,1,3.69,22.50,22.50,22.50,12.45
224173,2001/03/23,04:44:58,1,3.69,22.50,22.50,22.50,12.45
224173,2001/03/23,04:59:58,1,3.69,22.50,22.50,22.50,12.45
224173,2001/03/23,05:14:58,1,3.68,22.50,22.50,22.50,12.45
224173,2001/03/23,05:29:58,1,3.68,22.50,22.50,22.50,12.45
224173,2001/03/23,05:44:58,1,3.68,22.50,22.50,22.50,12.44
224173,2001/03/23,05:59:58,1,3.68,22.50,22.50,22.50,12.44
224173,2001/03/23,06:14:58,1,3.68,22.50,22.50,22.50,12.45
224173,2001/03/23,06:29:58,1,3.68,22.50,22.50,22.50,12.46
224173,2001/03/23,06:44:58,1,3.69,22.50,22.50,22.50,12.48
224173,2001/03/23,06:59:58,1,3.69,22.50,22.50,22.50,12.51
224173,2001/03/23,07:14:58,1,3.71,22.50,22.50,22.50,12.56
224173,2001/03/23,07:29:58,1,3.72,22.55,22.50,22.50,12.62
224173,2001/03/23,07:44:58,1,3.72,22.55,22.50,22.50,12.71
224173,2001/03/23,07:59:58,1,3.72,22.55,22.50,22.50,12.81
224173,2001/03/23,08:14:58,1,3.72,22.55,22.55,22.50,12.94
224173,2001/03/23,08:29:58,1,3.71,22.55,22.55,22.50,13.08
224173,2001/03/23,08:44:58,1,3.69,22.55,22.55,22.50,13.20
224173,2001/03/23,08:59:58,1,3.66,22.55,22.55,22.50,13.21
224173,2001/03/23,09:14:58,1,3.65,22.55,22.55,22.55,13.19
224173,2001/03/23,09:29:58,1,3.63,22.55,22.55,22.55,13.16
224173,2001/03/23,09:44:58,1,3.64,22.55,22.55,22.55,13.14
224173,2001/03/23,09:59:58,1,3.69,22.60,22.55,22.55,13.11
224173,2001/03/23,10:14:58,1,3.69,22.60,22.60,22.55,13.10
224173,2001/03/23,10:29:58,1,3.69,22.60,22.60,22.55,13.08
224173,2001/03/23,10:44:58,1,3.69,22.60,22.60,22.55,13.07
224173,2001/03/23,10:59:58,1,3.69,22.60,22.60,22.55,13.06
224173,2001/03/23,11:14:58,1,3.69,22.60,22.60,22.60,13.05
224173,2001/03/23,11:29:58,1,3.69,22.60,22.60,22.60,13.05
224173,2001/03/23,11:44:58,1,3.68,22.60,22.60,22.60,13.04
224173,2001/03/23,11:59:58,1,3.68,22.60,22.60,22.60,13.03
224173,2001/03/23,12:14:58,1,3.69,22.60,22.60,22.60,13.03
224173,2001/03/23,12:29:58,1,3.69,22.60,22.60,22.60,13.02
224173,2001/03/23,12:44:58,1,3.69,22.60,22.60,22.60,13.01
224173,2001/03/23,12:59:58,1,3.69,22.60,22.60,22.60,13.01
224173,2001/03/23,13:14:58,1,3.69,22.60,22.60,22.60,13.00
224173,2001/03/23,13:29:58,1,3.70,22.60,22.60,22.60,13.00
224173,2001/03/23,13:44:58,1,3.70,22.60,22.60,22.60,12.99
224173,2001/03/23,13:59:58,1,3.70,22.60,22.60,22.60,12.98
224173,2001/03/23,14:14:58,1,3.71,22.60,22.60,22.60,12.98
224173,2001/03/23,14:29:58,1,3.71,22.60,22.60,22.60,12.97
224173,2001/03/23,14:44:58,1,3.72,22.60,22.60,22.60,12.97
224173,2001/03/23,14:59:58,1,3.72,22.60,22.60,22.60,12.96
224173,2001/03/23,15:14:58,1,3.72,22.60,22.60,22.60,12.96
224173,2001/03/23,15:29:58,1,3.73,22.60,22.60,22.60,12.96
224173,2001/03/23,15:44:58,1,3.74,22.60,22.60,22.60,12.96
224173,2001/03/23,15:59:58,1,3.76,22.60,22.60,22.60,12.96
224173,2001/03/23,16:14:58,1,3.77,22.60,22.60,22.60,12.96
224173,2001/03/23,16:29:58,1,3.77,22.60,22.60,22.60,12.96
224173,2001/03/23,16:44:58,1,3.78,22.60,22.60,22.60,12.96
224173,2001/03/23,16:59:58,1,3.78,22.60,22.60,22.60,12.97
224173,2001/03/23,17:14:58,1,3.79,22.60,22.60,22.60,12.98
224173,2001/03/23,17:29:58,1,3.79,22.60,22.60,22.60,12.95
224173,2001/03/23,17:44:58,1,3.80,22.60,22.60,22.60,12.88
224173,2001/03/23,17:59:58,1,3.80,22.60,22.60,22.60,12.83
224173,2001/03/23,18:14:58,1,3.80,22.60,22.60,22.60,12.79
224173,2001/03/23,18:29:58,1,3.80,22.55,22.60,22.60,12.76
224173,2001/03/23,18:44:58,1,3.80,22.55,22.60,22.60,12.75
224173,2001/03/23,18:59:58,1,3.81,22.55,22.60,22.60,12.73
224173,2001/03/23,19:14:58,1,3.80,22.55,22.60,22.55,12.72
224173,2001/03/23,19:29:58,1,3.80,22.55,22.60,22.55,12.71
224173,2001/03/23,19:44:58,1,3.80,22.55,22.60,22.55,12.70
224173,2001/03/23,19:59:58,1,3.80,22.55,22.60,22.55,12.69
224173,2001/03/23,20:14:58,1,3.79,22.55,22.55,22.55,12.68
224173,2001/03/23,20:29:58,1,3.79,22.55,22.55,22.55,12.68
224173,2001/03/23,20:44:58,1,3.79,22.55,22.55,22.55,12.67
224173,2001/03/23,20:59:58,1,3.79,22.55,22.55,22.55,12.66
224173,2001/03/23,21:14:58,1,3.79,22.55,22.55,22.55,12.66
224173,2001/03/23,21:29:58,1,3.79,22.55,22.55,22.55,12.65
224173,2001/03/23,21:44:58,1,3.79,22.55,22.55,22.55,12.64
224173,2001/03/23,21:59:58,1,3.79,22.55,22.55,22.55,12.63
224173,2001/03/23,22:14:58,1,3.78,22.55,22.55,22.55,12.63
224173,2001/03/23,22:29:58,1,3.78,22.50,22.55,22.55,12.62
224173,2001/03/23,22:44:58,1,3.78,22.50,22.55,22.55,12.61
224173,2001/03/23,22:59:58,1,3.78,22.50,22.55,22.55,12.61
224173,2001/03/23,23:14:58,1,3.78,22.50,22.55,22.50,12.60
224173,2001/03/23,23:29:58,1,3.78,22.50,22.55,22.50,12.60
224173,2001/03/23,23:44:58,1,3.77,22.50,22.55,22.50,12.59
224173,2001/03/23,23:59:58,1,3.77,22.50,22.55,22.50,12.59
224173,2001/03/24,00:14:58,1,3.77,22.50,22.50,22.50,12.58
224173,2001/03/24,00:29:58,1,3.77,22.50,22.50,22.50,12.58
224173,2001/03/24,00:44:58,1,3.77,22.50,22.50,22.50,12.57
224173,2001/03/24,00:59:58,1,3.77,22.50,22.50,22.50,12.57
224173,2001/03/24,01:14:58,1,3.77,22.50,22.50,22.50,12.57
224173,2001/03/24,01:29:58,1,3.76,22.50,22.50,22.50,12.56
224173,2001/03/24,01:44:58,1,3.76,22.50,22.50,22.50,12.56
224173,2001/03/24,01:59:58,1,3.76,22.50,22.50,22.50,12.55
224173,2001/03/24,02:14:58,1,3.76,22.50,22.50,22.50,12.55
224173,2001/03/24,02:29:58,1,3.76,22.50,22.50,22.50,12.54
224173,2001/03/24,02:44:58,1,3.76,22.50,22.50,22.50,12.54
224173,2001/03/24,02:59:58,1,3.76,22.50,22.50,22.50,12.54
224173,2001/03/24,03:14:58,1,3.75,22.50,22.50,22.50,12.54
224173,2001/03/24,03:29:58,1,3.75,22.50,22.50,22.50,12.53
224173,2001/03/24,03:44:58,1,3.75,22.50,22.50,22.50,12.52
224173,2001/03/24,03:59:58,1,3.75,22.50,22.50,22.50,12.52
224173,2001/03/24,04:14:58,1,3.75,22.50,22.50,22.50,12.52
224173,2001/03/24,04:29:58,1,3.75,22.50,22.50,22.50,12.52
224173,2001/03/24,04:44:58,1,3.75,22.50,22.50,22.50,12.51
224173,2001/03/24,04:59:58,1,3.75,22.50,22.50,22.50,12.51
224173,2001/03/24,05:14:58,1,3.75,22.50,22.50,22.50,12.51
224173,2001/03/24,05:29:58,1,3.75,22.50,22.50,22.50,12.51
224173,2001/03/24,05:44:58,1,3.75,22.50,22.50,22.50,12.51
224173,2001/03/24,05:59:58,1,3.74,22.50,22.50,22.50,12.50
224173,2001/03/24,06:14:58,1,3.74,22.50,22.50,22.50,12.50
224173,2001/03/24,06:29:58,1,3.74,22.50,22.50,22.50,12.51
224173,2001/03/24,06:44:58,1,3.74,22.50,22.50,22.50,12.53
224173,2001/03/24,06:59:58,1,3.73,22.50,22.50,22.50,12.56
224173,2001/03/24,07:14:58,1,3.73,22.50,22.50,22.50,12.61
224173,2001/03/24,07:29:58,1,3.73,22.55,22.50,22.50,12.64
224173,2001/03/24,07:44:58,1,3.72,22.55,22.50,22.50,12.70
224173,2001/03/24,07:59:58,1,3.72,22.55,22.50,22.50,12.80
224173,2001/03/24,08:14:58,1,3.72,22.55,22.55,22.50,12.91
224173,2001/03/24,08:29:58,1,3.72,22.55,22.55,22.50,13.04
224173,2001/03/24,08:44:58,1,3.74,22.55,22.55,22.50,13.11
224173,2001/03/24,08:59:58,1,3.76,22.60,22.55,22.50,13.10
224173,2001/03/24,09:14:58,1,3.75,22.60,22.60,22.55,13.08
224173,2001/03/24,09:29:58,1,3.74,22.60,22.60,22.55,13.05
224173,2001/03/24,09:44:58,1,3.74,22.60,22.60,22.55,13.04
224173,2001/03/24,09:59:58,1,3.71,22.60,22.60,22.55,13.02
224173,2001/03/24,10:14:58,1,3.71,22.60,22.60,22.60,13.01
224173,2001/03/24,10:29:58,1,3.70,22.60,22.60,22.60,13.00
224173,2001/03/24,10:44:58,1,3.70,22.60,22.60,22.60,12.99
224173,2001/03/24,10:59:58,1,3.70,22.60,22.60,22.60,12.99
224173,2001/03/24,11:14:58,1,3.71,22.60,22.60,22.60,12.99
224173,2001/03/24,11:29:58,1,3.72,22.60,22.60,22.60,12.99
224173,2001/03/24,11:44:58,1,3.73,22.60,22.60,22.60,12.98
224173,2001/03/24,11:59:58,1,3.74,22.60,22.60,22.60,12.98
224173,2001/03/24,12:14:58,1,3.75,22.60,22.60,22.60,12.98
224173,2001/03/24,12:29:58,1,3.75,22.60,22.60,22.60,12.98
224173,2001/03/24,12:44:58,1,3.76,22.60,22.60,22.60,12.98
224173,2001/03/24,12:59:58,1,3.77,22.60,22.60,22.60,12.98
224173,2001/03/24,13:14:58,1,3.78,22.60,22.60,22.60,12.97
224173,2001/03/24,13:29:58,1,3.80,22.60,22.60,22.60,12.97
224173,2001/03/24,13:44:58,1,3.81,22.60,22.60,22.60,12.96
224173,2001/03/24,13:59:58,1,3.82,22.60,22.60,22.60,12.96
224173,2001/03/24,14:14:58,1,3.82,22.60,22.60,22.60,12.96
224173,2001/03/24,14:29:58,1,3.84,22.60,22.60,22.60,12.96
224173,2001/03/24,14:44:58,1,3.86,22.60,22.60,22.60,12.95
224173,2001/03/24,14:59:58,1,3.87,22.60,22.60,22.60,12.95